Temp
62 62 62 61 60 60 59 59 59 60 60 60 59 58 58 57 57 57 56 56 56 56 55 55 55 55 54 53 53 54 53 53 52 53 53 52 51 50 50 49 49 48 48 47 47 47 47 47 46 46 45 45 44 44 43 43 43 42 42 42 41 40 39 39 39 38 37 37 37
61 60 60 61 60 59 58 58 58 58 58 59 58 57 57 57 57 57 56 56 56 56 55 55 54 54 54 53 54 54 53 52 52 52 52 51 50 50 50 50 49 49 48 48 47 47 47 47 47 46 45 44 44 43 43 42 42 42 42 41 40 39 39 39 39 38 37 37 36
60 60 59 59 58 58 58 57 57 57 56 56 56 56 56 57 57 57 56 56 55 55 54 54 54 54 53 53 53 53 53 52 51 51 51 50 50 50 50 50 48 48 49 48 48 48 47 46 47 47 47 45 44 43 43 41 42 42 42 40 39 39 40 40 38 37 37 37 36
59 59 58 58 57 57 58 58 57 56 56 56 55 55 56 57 56 56 55 55 53 53 54 54 54 54 53 53 52 52 51 52 51 51 51 50 50 49 49 49 48 48 48 48 47 47 46 46 47 47 47 45 44 43 43 42 42 42 41 40 39 39 40 40 38 38 37 37 35
59 59 59 59 58 58 58 58 57 57 57 57 56 56 56 56 55 55 54 54 55 55 54 54 54 54 53 53 51 50 50 51 52 52 51 50 49 49 48 48 48 48 47 47 47 47 46 46 47 46 45 44 45 44 43 41 41 41 41 40 40 39 39 39 38 38 37 37 35
58 58 58 58 57 57 58 57 57 57 57 57 56 56 56 56 55 55 54 55 55 54 53 53 54 54 53 52 51 50 50 50 52 51 50 49 49 48 48 47 47 48 48 47 47 47 46 47 47 46 45 44 44 43 42 41 42 42 41 40 40 39 39 39 38 37 37 37 35
57 57 57 57 57 57 57 56 57 57 56 56 56 55 55 55 55 55 54 55 54 53 53 54 54 54 53 51 51 51 50 50 51 50 49 50 49 48 48 48 48 48 48 47 47 47 47 47 47 47 46 47 45 43 41 40 41 42 41 40 39 39 38 38 37 37 37 36 35
56 57 57 57 57 57 56 56 57 56 56 56 56 56 55 55 54 54 54 54 54 54 54 55 53 53 52 52 52 51 51 51 51 50 49 49 48 48 48 48 48 48 48 48 48 47 47 47 47 47 46 46 45 43 41 40 41 41 41 40 39 38 37 37 37 36 36 36 35
55 56 57 57 57 56 56 55 56 56 56 56 56 56 55 55 54 54 54 54 55 55 55 55 53 53 53 52 52 52 52 51 51 50 50 50 49 49 49 49 49 49 48 48 48 48 47 47 47 46 45 45 45 43 41 40 41 41 40 39 38 37 37 37 36 36 36 36 35
54 55 56 56 55 55 55 55 55 56 56 56 55 55 55 55 55 55 55 56 55 55 54 54 54 53 53 53 53 52 52 52 52 51 51 51 50 50 50 50 49 49 49 48 48 48 47 47 46 45 44 44 43 41 40 40 41 41 40 39 39 38 36 36 35 35 36 36 35
53 54 55 56 55 55 55 54 55 56 56 56 55 54 55 56 55 55 56 56 55 54 54 54 54 53 53 53 53 53 53 53 53 52 51 51 51 51 50 50 50 49 49 48 48 48 47 46 45 44 42 42 42 41 40 40 40 40 39 38 38 37 36 35 35 35 35 35 35
52 52 53 54 54 54 54 54 55 56 55 55 54 54 54 55 55 55 55 54 54 54 54 54 54 54 53 54 53 53 53 53 52 52 52 51 51 50 50 50 49 49 49 48 48 47 47 46 45 43 42 41 42 42 41 40 40 39 38 37 37 37 36 35 34 34 34 34 35
51 51 51 51 52 53 53 54 55 55 55 55 54 55 55 55 54 54 54 53 54 54 54 53 53 54 54 54 53 53 53 52 52 52 52 51 50 50 49 49 48 48 48 47 47 47 47 46 44 43 43 42 42 42 41 40 40 39 39 37 36 36 36 35 34 33 33 34 35
50 50 50 50 50 52 53 53 54 54 54 54 54 54 54 53 54 54 54 53 53 53 53 52 53 54 54 53 53 53 52 52 51 51 51 50 50 49 48 47 46 46 47 47 46 46 46 45 44 44 43 42 42 41 41 40 40 39 38 37 37 36 36 35 34 34 34 35 35
49 48 48 49 49 50 51 50 51 52 51 51 51 51 52 52 53 53 53 52 51 51 52 52 53 53 52 51 52 51 51 51 51 50 50 49 49 48 48 46 44 44 46 46 46 46 45 44 44 44 43 43 42 41 40 40 39 39 38 37 37 37 36 35 35 35 35 35 35
48 47 48 48 48 48 49 48 49 49 49 49 48 49 50 51 51 52 51 50 50 50 51 51 51 51 50 50 50 51 50 50 50 50 49 49 49 48 48 46 43 43 44 45 45 45 44 43 43 43 43 42 41 40 39 39 38 38 37 37 37 37 36 36 36 35 36 36 36
47 47 47 47 47 47 47 46 46 46 47 47 47 48 49 50 50 51 51 51 51 50 50 50 51 50 50 50 51 51 51 50 50 50 50 49 49 48 47 46 43 42 42 43 43 43 42 41 41 42 41 41 40 39 38 38 37 37 37 37 37 37 37 37 37 36 36 36 37
46 46 46 46 46 45 45 45 45 45 46 47 47 48 49 50 50 51 51 51 51 51 50 50 50 51 50 50 51 51 51 51 50 50 50 50 49 48 47 45 43 42 41 41 41 41 40 40 40 40 40 39 38 38 37 37 37 36 36 36 36 36 36 37 37 37 37 37 38
45 45 45 45 45 45 45 45 45 46 46 47 48 48 48 50 50 51 51 50 51 51 51 50 50 50 50 50 50 51 52 51 50 50 50 49 49 48 47 45 42 41 40 40 40 40 40 40 40 40 39 39 38 37 36 36 36 36 36 36 36 36 35 36 36 37 37 38 39
44 44 45 45 45 45 45 45 45 46 46 47 47 47 47 48 49 50 50 50 50 51 51 50 50 50 49 49 49 50 50 50 50 49 49 48 47 46 45 44 41 39 38 38 38 39 39 40 40 40 40 39 38 37 36 36 35 35 35 35 35 35 35 36 36 37 38 38 39
43 44 44 44 44 44 45 45 45 45 45 45 45 45 46 46 47 48 48 49 49 49 49 49 49 48 48 48 48 48 48 49 48 48 47 47 46 45 44 42 40 38 37 37 37 37 38 40 40 40 39 39 38 37 36 36 35 35 35 35 35 36 36 36 37 37 38 38 39
43 43 43 43 43 43 43 43 43 44 44 44 44 44 44 44 45 45 46 46 47 47 47 46 46 46 47 46 47 46 46 47 46 46 46 45 44 44 43 41 39 37 36 36 36 36 37 38 38 38 38 37 37 36 36 37 36 36 36 36 36 37 37 38 38 38 39 39 39
42 42 42 42 42 44 44 43 43 43 43 43 43 43 43 43 44 44 44 44 45 45 45 45 45 45 45 45 45 45 44 44 44 43 43 43 42 41 40 39 37 36 36 35 35 35 36 36 36 36 36 36 36 36 36 37 38 37 36 36 37 38 39 39 39 39 40 40 40
41 41 41 41 42 42 43 42 42 42 42 42 42 42 42 42 42 42 42 43 43 44 44 45 44 44 43 43 43 43 43 42 42 41 41 40 40 39 38 38 37 36 35 35 36 37 37 37 35 35 35 36 36 37 37 37 37 36 36 37 37 38 39 39 40 40 40 41 41
40 41 41 41 41 41 42 42 41 41 41 40 41 41 41 41 41 41 41 42 42 43 43 43 42 42 41 41 41 41 41 41 40 40 39 38 38 38 37 37 36 35 35 36 41 44 44 42 39 37 36 37 38 38 38 36 36 36 37 38 38 38 39 39 39 40 40 41 41
40 41 41 41 41 41 41 41 40 40 40 40 41 41 41 41 41 41 41 42 42 41 41 41 41 41 41 40 39 39 39 39 39 39 38 38 37 36 37 37 37 36 35 40 45 48 48 47 45 42 39 38 39 39 37 36 36 37 38 38 38 39 39 39 39 40 40 41 40
40 40 40 40 40 40 40 39 39 40 40 40 41 41 41 41 41 41 41 41 40 39 39 39 39 41 42 39 38 38 38 37 37 37 37 37 37 36 36 36 36 35 36 42 47 49 49 49 48 46 43 39 39 38 36 36 36 36 37 37 38 39 39 39 39 40 40 41 40
40 40 39 40 40 40 39 39 39 40 40 40 41 41 41 41 40 40 40 39 39 38 38 37 38 39 39 37 37 37 37 36 35 35 35 35 36 36 35 35 35 36 39 45 48 50 50 50 50 49 46 42 39 37 36 35 36 36 37 37 38 38 38 39 39 39 40 40 40
39 39 39 39 39 39 39 39 39 39 40 40 40 40 40 39 39 38 38 38 37 37 36 36 37 37 37 36 36 35 35 35 35 34 34 34 35 34 34 34 34 37 41 47 49 50 50 50 50 50 49 46 41 37 35 35 37 37 38 38 38 38 38 38 39 39 39 39 39
39 39 39 39 39 38 38 38 38 38 38 38 38 38 38 37 37 37 37 37 36 36 36 35 36 36 35 35 34 34 34 34 34 34 34 34 33 33 33 34 33 36 41 48 49 50 50 50 50 50 50 49 44 39 36 35 36 37 38 39 39 39 38 38 38 38 38 38 38
38 38 38 38 38 37 37 36 36 36 37 37 37 37 37 36 36 36 36 35 36 36 37 35 35 34 34 34 34 34 34 33 33 33 34 33 35 34 33 33 32 36 41 48 49 49 50 50 50 50 50 50 47 42 38 36 37 38 39 39 39 39 39 38 38 37 37 37 37
37 37 37 37 37 36 36 35 35 36 36 36 36 36 36 35 34 34 34 35 36 36 35 34 34 34 33 33 33 33 33 33 33 33 33 33 33 33 33 33 32 35 40 47 49 49 50 50 50 50 50 50 49 45 41 39 38 38 39 39 39 39 39 40 39 38 37 36 36
36 36 37 37 36 36 35 35 35 35 36 36 36 36 35 35 33 33 33 34 35 35 34 34 34 34 33 33 33 33 32 33 34 35 35 34 33 33 33 34 33 36 42 47 49 49 50 50 50 50 51 51 50 47 43 41 41 40 40 39 39 39 38 38 39 38 38 37 37
35 35 36 36 36 36 35 35 35 35 35 36 36 35 35 34 34 34 34 35 34 34 33 33 33 33 33 33 33 33 34 35 34 33 32 32 32 33 33 33 33 39 45 48 49 50 50 50 51 51 51 51 50 47 43 42 42 42 41 40 39 38 38 38 38 38 38 38 38
34 35 35 35 35 35 35 34 34 35 35 35 35 35 34 33 33 33 34 36 36 34 33 32 32 32 32 33 33 33 34 34 32 32 31 31 32 33 34 33 34 40 45 48 49 50 50 51 51 51 51 51 48 45 43 42 42 42 41 40 39 38 37 37 37 37 37 37 37
34 35 35 35 34 34 34 34 34 35 35 35 34 34 33 33 32 32 34 37 36 34 33 32 33 33 33 33 33 34 35 33 32 32 32 32 32 33 33 33 34 39 45 48 49 50 50 51 51 51 51 50 46 44 42 42 42 41 39 39 38 37 36 36 36 36 36 36 36
34 35 35 34 34 34 34 34 34 34 34 34 33 33 33 33 32 32 34 36 34 33 32 32 32 33 33 32 32 33 33 32 33 33 33 34 34 34 34 35 35 39 44 48 49 50 50 51 51 51 50 47 44 42 42 41 41 40 38 37 36 36 35 35 35 34 34 35 36
34 35 35 35 34 34 34 34 34 34 33 33 32 32 32 32 32 33 34 37 33 32 32 32 32 31 31 31 31 31 31 32 34 34 34 34 34 34 35 36 37 40 43 47 48 49 50 51 51 51 50 46 43 41 41 41 39 38 38 37 36 35 34 34 34 33 33 34 38
34 35 35 34 34 34 34 34 34 33 33 32 32 32 32 32 32 33 34 35 32 31 31 31 31 30 31 32 32 32 32 32 34 35 35 34 35 36 38 38 39 41 43 46 48 49 50 50 51 51 50 47 43 41 41 40 39 38 37 36 35 34 34 33 32 32 32 33 40
34 34 34 34 34 34 34 34 33 33 33 33 33 33 33 33 33 34 34 32 31 30 31 31 30 31 33 36 34 33 32 32 32 34 35 35 37 40 42 40 41 42 43 46 48 49 49 50 51 51 50 47 43 41 40 40 38 37 36 35 34 34 33 32 31 31 31 31 36
34 34 34 34 34 34 34 34 33 33 33 33 33 33 34 35 34 33 32 31 31 31 31 31 31 32 34 37 34 33 33 33 33 33 35 37 39 42 44 42 41 41 42 44 47 48 49 50 50 51 50 48 43 41 39 37 36 35 34 33 33 32 32 31 30 30 30 30 30
MSLP
1012.72 1012.84 1013.00 1013.20 1013.36 1013.56 1013.76 1013.92 1014.04 1014.16 1014.32 1014.48 1014.68 1014.84 1015.04 1015.24 1015.48 1015.64 1015.76 1015.92 1016.04 1016.20 1016.32 1016.48 1016.60 1016.76 1016.88 1017.04 1017.16 1017.28 1017.40 1017.52 1017.68 1017.84 1017.96 1018.12 1018.28 1018.48 1018.64 1018.80 1019.00 1019.20 1019.36 1019.52 1019.64 1019.80 1019.92 1020.04 1020.20 1020.32 1020.48 1020.60 1020.72 1020.80 1020.92 1021.00 1021.08 1021.20 1021.32 1021.40 1021.52 1021.68 1021.80 1021.96 1022.08 1022.20 1022.32 1022.36 1022.40
1012.60 1012.76 1012.92 1013.12 1013.28 1013.48 1013.72 1013.88 1014.00 1014.12 1014.24 1014.36 1014.52 1014.72 1014.92 1015.12 1015.32 1015.52 1015.72 1015.84 1015.92 1016.04 1016.24 1016.44 1016.60 1016.76 1016.88 1017.00 1017.04 1017.16 1017.28 1017.44 1017.60 1017.76 1017.92 1018.08 1018.20 1018.36 1018.52 1018.72 1018.88 1019.04 1019.20 1019.36 1019.56 1019.72 1019.88 1020.00 1020.12 1020.32 1020.44 1020.56 1020.68 1020.76 1020.88 1020.92 1021.00 1021.12 1021.24 1021.36 1021.48 1021.60 1021.72 1021.88 1022.00 1022.08 1022.16 1022.20 1022.32
1012.56 1012.72 1012.92 1013.08 1013.28 1013.48 1013.64 1013.84 1013.96 1014.08 1014.20 1014.32 1014.48 1014.64 1014.84 1015.04 1015.20 1015.36 1015.56 1015.72 1015.88 1016.04 1016.20 1016.40 1016.56 1016.68 1016.84 1017.00 1017.08 1017.16 1017.24 1017.36 1017.48 1017.64 1017.84 1018.00 1018.16 1018.32 1018.44 1018.60 1018.76 1018.92 1019.08 1019.24 1019.40 1019.56 1019.68 1019.84 1020.00 1020.12 1020.28 1020.44 1020.60 1020.72 1020.80 1020.92 1020.92 1021.04 1021.20 1021.32 1021.44 1021.52 1021.64 1021.76 1021.88 1021.96 1022.04 1022.16 1022.28
1012.52 1012.68 1012.88 1013.04 1013.20 1013.36 1013.48 1013.64 1013.84 1014.00 1014.16 1014.32 1014.48 1014.60 1014.76 1014.96 1015.16 1015.32 1015.48 1015.68 1015.92 1016.04 1016.20 1016.32 1016.48 1016.64 1016.76 1016.96 1017.08 1017.20 1017.24 1017.32 1017.48 1017.64 1017.76 1017.92 1018.08 1018.20 1018.32 1018.48 1018.68 1018.80 1018.92 1019.08 1019.24 1019.40 1019.56 1019.72 1019.84 1019.96 1020.12 1020.28 1020.48 1020.60 1020.68 1020.84 1020.88 1020.92 1021.04 1021.20 1021.32 1021.44 1021.60 1021.68 1021.76 1021.88 1021.96 1022.08 1022.20
1012.48 1012.60 1012.76 1012.92 1013.04 1013.20 1013.32 1013.52 1013.72 1013.92 1014.08 1014.24 1014.44 1014.60 1014.76 1014.92 1015.12 1015.32 1015.52 1015.76 1015.88 1016.00 1016.08 1016.24 1016.40 1016.56 1016.72 1016.92 1017.04 1017.20 1017.32 1017.36 1017.48 1017.56 1017.68 1017.88 1018.00 1018.12 1018.24 1018.40 1018.52 1018.68 1018.80 1019.00 1019.12 1019.28 1019.44 1019.60 1019.72 1019.88 1020.00 1020.12 1020.28 1020.44 1020.56 1020.72 1020.80 1020.92 1021.04 1021.16 1021.24 1021.32 1021.48 1021.60 1021.68 1021.76 1021.88 1022.04 1022.12
1012.48 1012.60 1012.72 1012.84 1013.00 1013.16 1013.28 1013.48 1013.64 1013.84 1014.00 1014.20 1014.36 1014.56 1014.72 1014.92 1015.04 1015.28 1015.44 1015.64 1015.72 1015.84 1016.00 1016.20 1016.32 1016.48 1016.68 1016.88 1017.04 1017.20 1017.32 1017.44 1017.48 1017.56 1017.68 1017.88 1017.96 1018.08 1018.20 1018.32 1018.40 1018.48 1018.64 1018.84 1018.96 1019.12 1019.28 1019.48 1019.64 1019.76 1019.92 1020.04 1020.12 1020.24 1020.40 1020.60 1020.72 1020.84 1020.96 1021.16 1021.20 1021.28 1021.36 1021.52 1021.64 1021.68 1021.80 1021.92 1022.04
1012.40 1012.56 1012.72 1012.76 1012.92 1013.08 1013.24 1013.40 1013.56 1013.72 1013.92 1014.08 1014.28 1014.44 1014.60 1014.76 1014.92 1015.08 1015.28 1015.36 1015.60 1015.80 1016.00 1016.08 1016.28 1016.44 1016.60 1016.76 1016.96 1017.08 1017.24 1017.32 1017.44 1017.52 1017.64 1017.76 1017.92 1018.04 1018.12 1018.20 1018.28 1018.40 1018.52 1018.64 1018.84 1019.00 1019.16 1019.32 1019.48 1019.64 1019.76 1019.92 1020.04 1020.20 1020.32 1020.48 1020.60 1020.76 1020.92 1021.08 1021.16 1021.20 1021.32 1021.44 1021.52 1021.64 1021.76 1021.84 1021.96
1012.36 1012.48 1012.60 1012.72 1012.88 1013.00 1013.16 1013.32 1013.48 1013.68 1013.88 1014.04 1014.16 1014.28 1014.40 1014.56 1014.76 1014.92 1015.08 1015.28 1015.48 1015.64 1015.76 1015.92 1016.08 1016.24 1016.40 1016.60 1016.76 1016.92 1017.08 1017.20 1017.32 1017.48 1017.56 1017.64 1017.84 1017.92 1018.04 1018.12 1018.24 1018.32 1018.40 1018.48 1018.64 1018.84 1019.04 1019.16 1019.32 1019.48 1019.64 1019.76 1019.92 1020.08 1020.24 1020.36 1020.48 1020.68 1020.88 1021.00 1021.12 1021.20 1021.24 1021.32 1021.44 1021.52 1021.64 1021.76 1021.88
1012.36 1012.48 1012.48 1012.60 1012.76 1012.92 1013.04 1013.20 1013.36 1013.60 1013.76 1013.92 1014.00 1014.08 1014.24 1014.40 1014.56 1014.76 1014.92 1015.12 1015.24 1015.40 1015.60 1015.76 1015.92 1016.04 1016.20 1016.40 1016.56 1016.72 1016.88 1017.04 1017.16 1017.28 1017.40 1017.56 1017.72 1017.84 1017.92 1018.04 1018.16 1018.24 1018.32 1018.48 1018.56 1018.72 1018.88 1019.04 1019.20 1019.32 1019.48 1019.64 1019.80 1020.00 1020.16 1020.28 1020.44 1020.60 1020.76 1020.92 1021.04 1021.20 1021.24 1021.28 1021.36 1021.48 1021.56 1021.68 1021.80
1012.32 1012.40 1012.48 1012.60 1012.72 1012.84 1013.00 1013.20 1013.32 1013.48 1013.64 1013.76 1013.92 1014.04 1014.16 1014.28 1014.44 1014.60 1014.76 1014.84 1015.04 1015.28 1015.44 1015.56 1015.76 1015.96 1016.16 1016.28 1016.40 1016.56 1016.68 1016.84 1016.96 1017.12 1017.28 1017.44 1017.56 1017.68 1017.80 1017.92 1018.04 1018.16 1018.32 1018.44 1018.52 1018.68 1018.84 1019.04 1019.20 1019.32 1019.48 1019.64 1019.76 1019.92 1020.08 1020.20 1020.36 1020.52 1020.68 1020.80 1020.96 1021.08 1021.20 1021.32 1021.36 1021.44 1021.48 1021.60 1021.72
1012.28 1012.36 1012.48 1012.60 1012.76 1012.88 1013.04 1013.20 1013.32 1013.44 1013.56 1013.72 1013.84 1013.96 1014.12 1014.20 1014.36 1014.48 1014.60 1014.76 1015.04 1015.20 1015.28 1015.40 1015.64 1015.84 1016.00 1016.16 1016.32 1016.44 1016.56 1016.72 1016.88 1017.04 1017.20 1017.32 1017.48 1017.60 1017.72 1017.84 1017.96 1018.08 1018.24 1018.40 1018.52 1018.68 1018.84 1019.00 1019.20 1019.36 1019.52 1019.64 1019.76 1019.92 1020.08 1020.20 1020.32 1020.48 1020.60 1020.76 1020.92 1021.04 1021.20 1021.28 1021.32 1021.40 1021.48 1021.52 1021.64
1012.28 1012.32 1012.44 1012.56 1012.72 1012.88 1013.04 1013.20 1013.32 1013.44 1013.56 1013.72 1013.84 1013.96 1014.08 1014.20 1014.32 1014.44 1014.60 1014.80 1014.96 1015.08 1015.20 1015.32 1015.48 1015.68 1015.84 1016.04 1016.20 1016.32 1016.48 1016.64 1016.80 1017.00 1017.16 1017.28 1017.44 1017.56 1017.64 1017.76 1017.92 1018.04 1018.20 1018.40 1018.52 1018.68 1018.84 1019.00 1019.20 1019.40 1019.56 1019.72 1019.80 1019.92 1020.04 1020.20 1020.32 1020.44 1020.60 1020.72 1020.84 1020.96 1021.08 1021.20 1021.28 1021.32 1021.40 1021.48 1021.52
1012.28 1012.40 1012.48 1012.60 1012.76 1012.92 1013.04 1013.20 1013.28 1013.44 1013.56 1013.68 1013.80 1013.92 1014.04 1014.16 1014.28 1014.44 1014.60 1014.76 1014.88 1015.00 1015.16 1015.32 1015.44 1015.60 1015.76 1015.92 1016.08 1016.28 1016.48 1016.60 1016.76 1016.92 1017.08 1017.24 1017.36 1017.48 1017.64 1017.80 1017.92 1018.08 1018.24 1018.40 1018.52 1018.64 1018.80 1018.96 1019.16 1019.32 1019.52 1019.68 1019.76 1019.84 1019.96 1020.08 1020.20 1020.32 1020.48 1020.64 1020.80 1020.92 1020.96 1021.04 1021.20 1021.28 1021.36 1021.40 1021.48
1012.32 1012.44 1012.60 1012.72 1012.84 1012.96 1013.08 1013.24 1013.32 1013.48 1013.60 1013.72 1013.84 1013.92 1014.04 1014.20 1014.32 1014.44 1014.56 1014.72 1014.84 1015.00 1015.16 1015.32 1015.48 1015.56 1015.72 1015.84 1016.04 1016.20 1016.36 1016.56 1016.72 1016.88 1017.04 1017.20 1017.32 1017.48 1017.64 1017.76 1017.92 1018.08 1018.24 1018.36 1018.52 1018.64 1018.76 1018.92 1019.08 1019.24 1019.40 1019.60 1019.72 1019.76 1019.88 1020.00 1020.08 1020.20 1020.32 1020.48 1020.64 1020.76 1020.84 1020.96 1021.04 1021.20 1021.28 1021.36 1021.40
1012.48 1012.60 1012.72 1012.80 1012.96 1013.08 1013.20 1013.36 1013.48 1013.56 1013.68 1013.80 1013.92 1014.00 1014.08 1014.20 1014.32 1014.44 1014.60 1014.76 1014.88 1015.00 1015.20 1015.32 1015.48 1015.60 1015.68 1015.88 1016.04 1016.20 1016.32 1016.48 1016.64 1016.80 1017.00 1017.12 1017.24 1017.40 1017.56 1017.72 1017.88 1018.00 1018.16 1018.32 1018.44 1018.56 1018.68 1018.80 1018.96 1019.12 1019.28 1019.48 1019.60 1019.72 1019.84 1019.92 1020.04 1020.12 1020.20 1020.32 1020.44 1020.60 1020.68 1020.84 1020.92 1021.04 1021.16 1021.20 1021.28
1012.60 1012.76 1012.88 1012.96 1013.08 1013.20 1013.32 1013.48 1013.56 1013.64 1013.76 1013.88 1014.00 1014.04 1014.16 1014.24 1014.36 1014.48 1014.60 1014.76 1014.92 1015.04 1015.20 1015.32 1015.48 1015.60 1015.76 1015.88 1015.96 1016.12 1016.28 1016.44 1016.60 1016.76 1016.92 1017.04 1017.20 1017.32 1017.44 1017.56 1017.72 1017.84 1017.92 1018.04 1018.20 1018.36 1018.48 1018.60 1018.76 1018.96 1019.16 1019.32 1019.52 1019.64 1019.76 1019.92 1019.96 1020.04 1020.12 1020.20 1020.32 1020.44 1020.56 1020.68 1020.80 1020.92 1021.00 1021.04 1021.08
1012.76 1012.88 1012.96 1013.08 1013.20 1013.32 1013.44 1013.56 1013.64 1013.76 1013.84 1013.92 1014.00 1014.08 1014.20 1014.24 1014.36 1014.52 1014.64 1014.76 1014.92 1015.08 1015.20 1015.32 1015.44 1015.60 1015.76 1015.84 1015.92 1016.04 1016.20 1016.36 1016.48 1016.60 1016.76 1016.84 1017.00 1017.08 1017.20 1017.32 1017.48 1017.56 1017.64 1017.76 1017.92 1018.12 1018.32 1018.48 1018.64 1018.88 1019.08 1019.24 1019.44 1019.60 1019.72 1019.84 1019.92 1020.00 1020.08 1020.16 1020.24 1020.32 1020.44 1020.52 1020.60 1020.76 1020.84 1020.92 1020.92
1012.92 1013.00 1013.04 1013.16 1013.28 1013.40 1013.48 1013.60 1013.72 1013.76 1013.84 1013.92 1013.96 1014.04 1014.12 1014.20 1014.32 1014.48 1014.60 1014.68 1014.84 1015.00 1015.16 1015.28 1015.40 1015.48 1015.64 1015.76 1015.88 1015.96 1016.08 1016.20 1016.32 1016.48 1016.52 1016.60 1016.76 1016.88 1017.00 1017.16 1017.28 1017.44 1017.56 1017.68 1017.84 1018.04 1018.20 1018.40 1018.60 1018.84 1019.04 1019.20 1019.36 1019.52 1019.64 1019.76 1019.88 1019.92 1020.04 1020.12 1020.20 1020.28 1020.32 1020.40 1020.48 1020.60 1020.68 1020.76 1020.76
1013.00 1013.04 1013.16 1013.24 1013.32 1013.44 1013.52 1013.64 1013.68 1013.76 1013.80 1013.88 1013.92 1014.04 1014.08 1014.20 1014.28 1014.40 1014.56 1014.68 1014.76 1014.88 1015.04 1015.20 1015.32 1015.40 1015.52 1015.64 1015.76 1015.84 1015.92 1016.04 1016.16 1016.24 1016.36 1016.48 1016.60 1016.76 1016.92 1017.08 1017.32 1017.48 1017.64 1017.76 1017.88 1018.00 1018.20 1018.36 1018.56 1018.76 1019.00 1019.20 1019.32 1019.48 1019.64 1019.72 1019.80 1019.92 1019.96 1020.04 1020.12 1020.20 1020.24 1020.32 1020.36 1020.40 1020.48 1020.52 1020.56
1013.04 1013.12 1013.20 1013.28 1013.32 1013.44 1013.52 1013.60 1013.68 1013.76 1013.80 1013.88 1014.00 1014.08 1014.16 1014.20 1014.24 1014.36 1014.48 1014.60 1014.64 1014.76 1014.88 1015.04 1015.20 1015.32 1015.44 1015.52 1015.64 1015.72 1015.80 1015.88 1016.00 1016.16 1016.28 1016.44 1016.60 1016.76 1016.92 1017.08 1017.32 1017.52 1017.68 1017.76 1017.92 1018.04 1018.20 1018.36 1018.52 1018.72 1018.92 1019.08 1019.28 1019.48 1019.60 1019.72 1019.76 1019.88 1019.96 1020.00 1020.04 1020.04 1020.12 1020.20 1020.24 1020.28 1020.32 1020.36 1020.40
1013.04 1013.16 1013.20 1013.28 1013.36 1013.48 1013.60 1013.64 1013.76 1013.84 1013.92 1014.00 1014.12 1014.20 1014.20 1014.28 1014.32 1014.40 1014.48 1014.52 1014.64 1014.76 1014.88 1015.00 1015.12 1015.28 1015.40 1015.48 1015.64 1015.72 1015.76 1015.88 1016.00 1016.16 1016.32 1016.44 1016.60 1016.72 1016.88 1017.04 1017.28 1017.48 1017.68 1017.80 1017.92 1018.04 1018.20 1018.32 1018.48 1018.64 1018.84 1019.04 1019.20 1019.36 1019.48 1019.64 1019.76 1019.80 1019.88 1019.92 1019.92 1019.96 1020.04 1020.04 1020.12 1020.16 1020.20 1020.20 1020.24
1013.12 1013.20 1013.28 1013.32 1013.48 1013.56 1013.64 1013.76 1013.84 1013.92 1014.04 1014.12 1014.20 1014.28 1014.32 1014.44 1014.48 1014.56 1014.60 1014.64 1014.76 1014.88 1015.00 1015.08 1015.20 1015.28 1015.40 1015.52 1015.64 1015.76 1015.84 1015.92 1016.08 1016.20 1016.32 1016.48 1016.60 1016.72 1016.88 1017.04 1017.28 1017.48 1017.68 1017.84 1017.92 1018.04 1018.20 1018.32 1018.44 1018.60 1018.76 1018.96 1019.16 1019.28 1019.36 1019.48 1019.60 1019.68 1019.76 1019.76 1019.76 1019.84 1019.88 1019.92 1019.96 1020.00 1020.04 1020.04 1020.08
1013.20 1013.32 1013.40 1013.48 1013.56 1013.64 1013.76 1013.84 1013.92 1014.04 1014.12 1014.20 1014.32 1014.36 1014.48 1014.56 1014.60 1014.68 1014.76 1014.80 1014.92 1015.00 1015.08 1015.20 1015.24 1015.32 1015.44 1015.52 1015.64 1015.76 1015.92 1016.04 1016.20 1016.32 1016.40 1016.56 1016.64 1016.80 1016.96 1017.12 1017.32 1017.48 1017.68 1017.80 1017.92 1018.04 1018.20 1018.32 1018.48 1018.60 1018.72 1018.92 1019.08 1019.20 1019.28 1019.36 1019.44 1019.52 1019.64 1019.64 1019.68 1019.72 1019.76 1019.76 1019.76 1019.80 1019.88 1019.88 1019.92
1013.32 1013.40 1013.48 1013.60 1013.68 1013.76 1013.88 1013.96 1014.04 1014.20 1014.28 1014.36 1014.40 1014.48 1014.60 1014.64 1014.72 1014.76 1014.88 1014.92 1015.00 1015.04 1015.16 1015.24 1015.32 1015.48 1015.56 1015.64 1015.76 1015.88 1016.00 1016.16 1016.32 1016.44 1016.52 1016.64 1016.76 1016.92 1017.04 1017.20 1017.32 1017.48 1017.60 1017.76 1017.88 1018.00 1018.08 1018.28 1018.44 1018.60 1018.72 1018.84 1018.96 1019.08 1019.16 1019.24 1019.32 1019.40 1019.48 1019.52 1019.56 1019.60 1019.60 1019.64 1019.64 1019.64 1019.68 1019.68 1019.64
1013.36 1013.48 1013.56 1013.68 1013.76 1013.88 1013.96 1014.04 1014.20 1014.28 1014.36 1014.44 1014.48 1014.56 1014.64 1014.72 1014.80 1014.92 1014.96 1015.04 1015.12 1015.20 1015.28 1015.36 1015.48 1015.60 1015.72 1015.84 1015.92 1016.00 1016.08 1016.20 1016.32 1016.48 1016.60 1016.76 1016.80 1016.92 1017.04 1017.20 1017.32 1017.48 1017.64 1017.76 1017.76 1017.76 1017.92 1018.08 1018.28 1018.48 1018.64 1018.76 1018.92 1019.00 1019.08 1019.16 1019.20 1019.28 1019.32 1019.32 1019.40 1019.48 1019.48 1019.48 1019.48 1019.48 1019.48 1019.44 1019.40
1013.48 1013.60 1013.68 1013.76 1013.84 1013.96 1014.04 1014.20 1014.28 1014.32 1014.44 1014.48 1014.56 1014.64 1014.72 1014.76 1014.88 1014.96 1015.04 1015.20 1015.24 1015.32 1015.40 1015.48 1015.64 1015.76 1015.84 1015.92 1016.04 1016.16 1016.24 1016.32 1016.36 1016.48 1016.60 1016.76 1016.92 1017.04 1017.12 1017.20 1017.32 1017.48 1017.64 1017.64 1017.64 1017.64 1017.76 1017.92 1018.12 1018.32 1018.48 1018.68 1018.80 1018.92 1019.04 1019.12 1019.16 1019.16 1019.20 1019.24 1019.28 1019.32 1019.36 1019.36 1019.32 1019.32 1019.24 1019.20 1019.12
1013.56 1013.68 1013.76 1013.84 1013.92 1014.04 1014.16 1014.24 1014.32 1014.40 1014.48 1014.56 1014.64 1014.72 1014.80 1014.84 1014.96 1015.08 1015.20 1015.32 1015.40 1015.48 1015.56 1015.64 1015.76 1015.84 1015.92 1016.04 1016.16 1016.28 1016.36 1016.48 1016.52 1016.56 1016.64 1016.76 1016.92 1017.08 1017.20 1017.24 1017.32 1017.48 1017.64 1017.60 1017.56 1017.60 1017.68 1017.84 1018.00 1018.20 1018.40 1018.60 1018.76 1018.84 1018.92 1019.00 1019.04 1019.12 1019.16 1019.20 1019.24 1019.24 1019.24 1019.20 1019.20 1019.16 1019.04 1018.96 1018.92
1013.68 1013.76 1013.88 1013.96 1014.08 1014.20 1014.28 1014.32 1014.44 1014.48 1014.60 1014.60 1014.72 1014.76 1014.88 1014.96 1015.08 1015.20 1015.32 1015.44 1015.52 1015.64 1015.72 1015.80 1015.88 1015.92 1016.00 1016.16 1016.28 1016.36 1016.48 1016.56 1016.64 1016.72 1016.80 1016.84 1016.96 1017.08 1017.20 1017.28 1017.36 1017.48 1017.52 1017.52 1017.48 1017.56 1017.68 1017.76 1017.88 1018.04 1018.24 1018.48 1018.64 1018.76 1018.88 1018.96 1019.04 1019.08 1019.16 1019.20 1019.20 1019.20 1019.16 1019.12 1019.04 1019.00 1018.92 1018.84 1018.76
1013.76 1013.92 1014.04 1014.12 1014.24 1014.32 1014.40 1014.48 1014.56 1014.60 1014.64 1014.76 1014.80 1014.92 1015.04 1015.12 1015.24 1015.36 1015.48 1015.60 1015.64 1015.76 1015.92 1016.00 1016.00 1016.04 1016.20 1016.32 1016.44 1016.48 1016.60 1016.68 1016.76 1016.88 1016.92 1017.00 1017.08 1017.20 1017.28 1017.36 1017.44 1017.48 1017.48 1017.48 1017.48 1017.56 1017.64 1017.76 1017.84 1017.92 1018.08 1018.32 1018.56 1018.72 1018.84 1018.92 1018.96 1019.04 1019.08 1019.12 1019.12 1019.08 1019.04 1019.04 1018.96 1018.92 1018.80 1018.76 1018.68
1013.92 1014.00 1014.16 1014.32 1014.40 1014.48 1014.56 1014.60 1014.64 1014.72 1014.76 1014.84 1014.92 1015.04 1015.16 1015.28 1015.40 1015.52 1015.64 1015.72 1015.80 1015.92 1015.96 1016.04 1016.08 1016.24 1016.36 1016.48 1016.56 1016.64 1016.76 1016.84 1016.92 1016.96 1017.04 1017.16 1017.24 1017.32 1017.36 1017.44 1017.48 1017.52 1017.52 1017.52 1017.52 1017.56 1017.64 1017.72 1017.80 1017.88 1018.00 1018.16 1018.40 1018.60 1018.76 1018.80 1018.92 1018.92 1018.92 1018.92 1018.92 1018.92 1018.92 1018.84 1018.80 1018.76 1018.68 1018.60 1018.60
1014.04 1014.12 1014.24 1014.40 1014.52 1014.60 1014.64 1014.72 1014.76 1014.80 1014.84 1014.92 1015.04 1015.20 1015.32 1015.44 1015.56 1015.64 1015.72 1015.80 1015.88 1015.92 1016.00 1016.08 1016.20 1016.36 1016.48 1016.56 1016.68 1016.76 1016.88 1016.92 1017.00 1017.04 1017.16 1017.24 1017.28 1017.36 1017.48 1017.56 1017.64 1017.60 1017.56 1017.56 1017.56 1017.60 1017.64 1017.72 1017.76 1017.84 1017.92 1018.00 1018.20 1018.36 1018.52 1018.60 1018.68 1018.72 1018.72 1018.72 1018.68 1018.64 1018.64 1018.64 1018.60 1018.56 1018.52 1018.48 1018.48
1014.16 1014.24 1014.36 1014.52 1014.64 1014.72 1014.76 1014.76 1014.80 1014.88 1014.96 1015.04 1015.20 1015.32 1015.48 1015.60 1015.68 1015.76 1015.80 1015.84 1015.92 1016.00 1016.16 1016.28 1016.40 1016.52 1016.60 1016.72 1016.80 1016.88 1016.96 1017.04 1017.12 1017.20 1017.20 1017.32 1017.36 1017.48 1017.56 1017.64 1017.68 1017.72 1017.64 1017.56 1017.52 1017.56 1017.64 1017.64 1017.76 1017.76 1017.84 1017.88 1017.96 1018.08 1018.20 1018.32 1018.40 1018.44 1018.44 1018.40 1018.40 1018.36 1018.32 1018.32 1018.32 1018.28 1018.28 1018.28 1018.28
1014.32 1014.40 1014.48 1014.60 1014.72 1014.76 1014.84 1014.88 1014.92 1014.96 1015.04 1015.16 1015.32 1015.48 1015.56 1015.68 1015.80 1015.92 1015.92 1015.96 1016.00 1016.12 1016.28 1016.40 1016.52 1016.60 1016.76 1016.88 1016.92 1017.00 1017.04 1017.12 1017.16 1017.20 1017.28 1017.32 1017.44 1017.52 1017.60 1017.64 1017.68 1017.72 1017.68 1017.60 1017.56 1017.56 1017.64 1017.64 1017.64 1017.68 1017.68 1017.72 1017.76 1017.84 1017.92 1018.00 1018.04 1018.12 1018.12 1018.08 1018.08 1018.08 1018.08 1018.08 1018.04 1018.04 1018.00 1018.00 1018.00
1014.48 1014.52 1014.60 1014.72 1014.80 1014.88 1014.92 1014.96 1015.04 1015.08 1015.20 1015.32 1015.48 1015.60 1015.68 1015.76 1015.92 1016.00 1016.04 1016.04 1016.12 1016.20 1016.32 1016.48 1016.56 1016.64 1016.76 1016.84 1016.92 1017.04 1017.08 1017.16 1017.20 1017.28 1017.36 1017.44 1017.48 1017.56 1017.60 1017.64 1017.64 1017.64 1017.64 1017.56 1017.52 1017.52 1017.52 1017.52 1017.52 1017.52 1017.52 1017.52 1017.56 1017.64 1017.68 1017.76 1017.76 1017.76 1017.80 1017.80 1017.80 1017.80 1017.80 1017.80 1017.80 1017.80 1017.76 1017.76 1017.76
1014.60 1014.64 1014.76 1014.84 1014.92 1014.96 1015.04 1015.08 1015.16 1015.24 1015.32 1015.52 1015.64 1015.76 1015.80 1015.88 1015.96 1016.04 1016.08 1016.08 1016.16 1016.28 1016.44 1016.52 1016.60 1016.68 1016.76 1016.88 1016.92 1017.00 1017.08 1017.20 1017.28 1017.32 1017.36 1017.48 1017.52 1017.56 1017.60 1017.64 1017.64 1017.56 1017.52 1017.48 1017.48 1017.44 1017.44 1017.40 1017.36 1017.32 1017.32 1017.32 1017.36 1017.40 1017.48 1017.48 1017.52 1017.52 1017.52 1017.56 1017.60 1017.64 1017.64 1017.64 1017.64 1017.64 1017.60 1017.64 1017.64
1014.64 1014.76 1014.84 1014.92 1015.00 1015.04 1015.12 1015.20 1015.28 1015.40 1015.52 1015.64 1015.76 1015.88 1015.92 1016.00 1016.04 1016.08 1016.12 1016.08 1016.20 1016.36 1016.52 1016.60 1016.72 1016.76 1016.88 1016.96 1017.04 1017.04 1017.08 1017.20 1017.32 1017.36 1017.40 1017.44 1017.48 1017.56 1017.56 1017.56 1017.56 1017.48 1017.44 1017.36 1017.32 1017.32 1017.28 1017.24 1017.20 1017.20 1017.16 1017.20 1017.24 1017.28 1017.32 1017.32 1017.32 1017.36 1017.40 1017.44 1017.44 1017.44 1017.40 1017.44 1017.44 1017.44 1017.48 1017.48 1017.48
1014.68 1014.76 1014.88 1015.00 1015.08 1015.16 1015.20 1015.28 1015.36 1015.52 1015.64 1015.76 1015.88 1015.96 1016.00 1016.04 1016.08 1016.12 1016.16 1016.16 1016.32 1016.52 1016.64 1016.76 1016.80 1016.88 1016.92 1017.04 1017.04 1017.08 1017.16 1017.16 1017.24 1017.32 1017.40 1017.44 1017.48 1017.48 1017.52 1017.52 1017.48 1017.40 1017.32 1017.24 1017.20 1017.20 1017.16 1017.08 1017.04 1017.04 1017.04 1017.08 1017.12 1017.16 1017.20 1017.20 1017.20 1017.20 1017.24 1017.32 1017.32 1017.28 1017.28 1017.28 1017.28 1017.32 1017.32 1017.32 1017.28
1014.76 1014.80 1014.92 1015.04 1015.16 1015.24 1015.32 1015.36 1015.48 1015.64 1015.76 1015.88 1015.92 1016.00 1016.00 1016.04 1016.12 1016.20 1016.20 1016.20 1016.40 1016.60 1016.76 1016.80 1016.92 1016.96 1017.00 1017.04 1017.04 1017.16 1017.20 1017.20 1017.20 1017.28 1017.36 1017.40 1017.44 1017.44 1017.48 1017.48 1017.36 1017.32 1017.24 1017.20 1017.12 1017.08 1017.04 1017.00 1016.96 1016.92 1016.92 1017.00 1017.04 1017.04 1017.04 1017.04 1017.08 1017.08 1017.08 1017.12 1017.12 1017.12 1017.12 1017.12 1017.16 1017.16 1017.20 1017.20 1017.08
1014.80 1014.88 1014.92 1015.04 1015.20 1015.32 1015.36 1015.48 1015.56 1015.68 1015.76 1015.88 1015.96 1016.00 1016.04 1016.04 1016.16 1016.20 1016.24 1016.24 1016.40 1016.60 1016.76 1016.88 1016.96 1017.00 1017.00 1017.04 1017.08 1017.20 1017.20 1017.20 1017.20 1017.20 1017.28 1017.32 1017.32 1017.32 1017.32 1017.32 1017.28 1017.20 1017.16 1017.12 1017.08 1017.04 1017.00 1016.92 1016.92 1016.84 1016.84 1016.88 1016.88 1016.92 1016.92 1016.92 1016.92 1016.92 1016.96 1017.00 1017.00 1017.04 1017.04 1017.04 1017.04 1017.04 1017.04 1017.04 1016.88
1014.88 1014.92 1015.00 1015.12 1015.24 1015.32 1015.44 1015.56 1015.64 1015.72 1015.80 1015.92 1015.96 1016.04 1016.08 1016.12 1016.20 1016.24 1016.28 1016.32 1016.48 1016.60 1016.72 1016.84 1016.96 1017.00 1017.00 1017.00 1017.08 1017.20 1017.24 1017.28 1017.28 1017.24 1017.20 1017.20 1017.20 1017.20 1017.20 1017.24 1017.20 1017.16 1017.08 1017.04 1017.04 1017.00 1016.92 1016.88 1016.80 1016.76 1016.72 1016.76 1016.76 1016.76 1016.76 1016.80 1016.84 1016.88 1016.92 1016.92 1016.92 1016.92 1016.92 1016.92 1016.96 1016.96 1016.96 1016.92 1016.80
1014.96 1015.04 1015.08 1015.20 1015.28 1015.36 1015.48 1015.64 1015.76 1015.80 1015.84 1015.92 1015.96 1016.04 1016.12 1016.12 1016.20 1016.32 1016.36 1016.48 1016.52 1016.60 1016.76 1016.84 1016.96 1017.04 1017.04 1017.04 1017.08 1017.20 1017.28 1017.32 1017.32 1017.28 1017.24 1017.20 1017.20 1017.20 1017.20 1017.20 1017.20 1017.16 1017.08 1017.04 1016.96 1016.92 1016.88 1016.84 1016.76 1016.68 1016.60 1016.60 1016.60 1016.60 1016.68 1016.76 1016.80 1016.88 1016.88 1016.88 1016.88 1016.88 1016.88 1016.92 1016.88 1016.88 1016.88 1016.84 1016.76
Wind_Speed
9 8 7 7 7 7 6 6 6 6 6 7 7 7 7 7 7 7 6 6 7 6 6 6 6 6 7 9 10 11 11 10 11 11 11 11 10 10 10 9 9 9 8 8 8 7 7 7 6 5 4 4 4 4 3 3 4 4 5 5 4 5 5 6 5 5 5 4 3
10 9 8 7 7 6 5 5 5 5 5 6 6 6 6 7 7 7 7 7 6 6 6 5 6 7 8 9 10 11 11 11 11 11 11 11 10 10 10 9 9 9 9 9 8 7 7 7 6 5 4 4 4 4 4 3 4 5 5 5 4 4 5 5 5 5 5 4 3
9 8 7 7 7 6 6 5 5 6 6 5 5 5 6 6 6 6 7 7 6 6 5 5 6 7 8 10 9 9 10 10 11 11 10 10 10 10 10 9 9 9 9 9 9 8 7 7 7 6 5 4 5 5 4 4 4 5 5 6 4 4 4 4 5 4 4 4 3
9 8 8 8 8 8 8 6 7 7 7 6 5 5 6 6 5 5 6 6 6 5 5 6 6 7 8 9 9 9 9 9 10 10 10 9 10 10 10 10 10 10 9 9 9 8 8 8 6 5 5 6 6 5 5 4 4 5 5 4 4 4 4 4 4 3 3 3 3
9 9 8 8 9 9 8 7 8 8 7 6 6 6 6 5 5 5 5 6 6 6 7 7 7 7 8 9 9 9 9 9 10 10 9 9 10 10 10 10 11 10 10 9 9 9 9 8 6 5 5 6 5 5 5 5 5 5 4 3 3 3 3 4 3 3 3 3 2
8 8 8 7 8 8 7 7 8 8 7 6 7 7 7 6 6 6 6 7 7 7 8 8 8 8 8 9 9 9 9 9 9 9 9 9 9 10 10 11 11 10 10 10 10 10 9 9 6 5 5 5 5 4 4 5 5 5 4 3 2 3 3 4 3 3 3 3 3
8 8 8 8 8 8 7 7 8 8 7 7 9 9 9 8 8 8 9 8 7 7 8 8 8 9 9 10 10 10 9 9 9 9 9 9 9 10 10 11 11 11 10 10 10 10 9 8 6 5 5 5 4 4 5 5 5 5 5 4 3 3 3 4 3 3 4 4 4
7 8 8 8 9 9 8 9 8 8 8 7 9 11 11 10 10 10 10 9 8 8 8 8 9 10 11 11 11 11 11 11 10 10 10 10 10 10 11 11 11 11 11 11 11 10 9 8 6 6 6 5 5 5 5 6 6 6 6 6 4 3 3 3 3 4 4 6 5
6 7 8 8 8 9 9 9 9 9 9 9 10 11 11 11 11 11 11 9 9 9 9 9 10 11 12 12 12 12 12 12 11 11 11 10 11 11 11 11 11 11 10 10 10 11 10 7 6 5 5 5 5 5 6 7 7 7 7 6 4 3 2 2 3 4 5 5 6
7 7 7 7 8 8 9 9 9 10 11 10 10 10 11 11 12 11 10 9 9 9 9 9 11 11 12 13 13 12 12 11 11 11 11 11 12 12 11 11 11 11 10 9 9 9 9 7 6 5 5 5 5 6 6 7 8 8 7 5 5 4 4 3 3 4 5 5 6
7 7 7 7 8 8 8 8 9 9 10 10 10 10 10 11 11 10 9 8 8 9 10 10 11 12 12 12 12 12 11 11 10 11 11 11 11 12 11 11 11 11 10 9 8 8 7 6 6 6 6 5 6 6 6 7 8 8 7 5 6 6 5 4 4 4 4 5 6
7 7 7 7 8 8 9 9 8 8 9 9 9 9 9 10 10 9 9 8 9 10 10 9 11 12 12 11 11 11 10 10 10 10 10 11 11 11 11 10 10 10 9 9 7 7 6 6 6 7 7 6 6 6 7 8 8 8 8 6 6 6 6 5 4 4 4 4 5
6 7 7 7 8 8 9 8 8 8 8 9 9 9 8 8 9 9 9 9 9 9 8 8 10 10 10 10 10 10 9 9 10 10 10 10 10 10 10 9 9 9 8 8 7 6 6 7 7 8 8 8 7 6 7 8 8 8 8 7 7 7 7 7 5 4 4 4 5
6 6 7 7 8 8 8 7 7 7 7 8 8 7 7 7 7 8 8 8 8 8 7 7 8 9 9 9 9 9 9 9 9 9 9 9 9 9 9 8 8 8 7 7 7 7 7 8 8 9 9 9 8 7 7 8 8 8 8 8 8 8 7 7 6 5 5 5 5
5 5 6 6 7 7 6 6 5 5 6 6 6 6 6 6 6 6 7 7 7 6 6 7 7 7 7 8 8 9 9 9 9 9 9 9 9 9 9 8 8 8 8 8 8 8 9 9 9 9 9 9 9 8 7 7 8 8 8 8 9 8 8 7 6 6 6 6 6
4 4 5 5 6 6 5 5 4 4 5 5 5 5 5 5 5 6 6 6 6 5 6 7 7 6 6 7 8 8 9 9 9 10 10 10 10 10 10 10 10 10 10 10 10 10 9 9 9 9 9 9 8 8 8 7 7 7 8 8 8 8 7 7 7 7 7 7 7
4 4 4 5 5 5 5 4 4 4 4 5 5 5 5 5 5 5 6 7 6 6 6 7 7 7 6 7 7 8 8 9 9 10 10 11 11 12 12 12 11 11 11 11 11 11 10 8 8 8 8 8 8 8 8 8 7 7 7 7 7 7 7 7 7 7 7 7 8
4 4 4 5 5 5 5 5 4 4 5 5 5 5 5 6 6 6 6 7 7 7 8 8 8 7 8 8 8 8 9 9 10 11 11 11 12 12 12 11 11 10 10 10 10 10 9 8 8 8 7 7 7 7 7 7 7 7 7 7 7 7 7 7 7 7 7 8 8
4 4 5 5 6 6 6 5 5 5 5 5 5 5 5 6 7 7 6 7 8 9 10 9 8 8 9 9 9 9 9 10 11 11 11 11 11 11 11 10 9 9 9 9 9 9 8 8 8 8 7 7 6 6 6 6 6 6 6 7 7 7 7 7 7 7 7 8 8
5 5 5 5 5 6 5 5 5 4 4 4 4 5 6 6 7 7 8 8 8 9 10 10 9 9 9 9 9 9 9 9 10 10 10 9 9 9 9 9 8 8 8 8 8 8 8 8 8 8 8 8 7 6 6 6 6 6 6 6 6 7 7 7 7 7 7 8 8
5 5 5 4 5 5 4 4 3 3 3 3 4 4 5 5 6 7 7 7 8 8 8 9 9 9 9 9 9 9 8 7 8 8 8 8 8 8 8 8 8 8 7 7 8 8 8 8 8 8 8 8 8 7 7 6 6 6 6 5 6 6 6 6 7 7 7 7 7
3 3 3 3 3 3 3 3 3 3 3 3 3 3 4 4 5 5 5 5 6 6 7 7 8 8 8 8 9 8 7 5 6 6 6 7 7 7 7 7 8 8 7 7 8 8 8 8 8 8 8 8 7 7 7 7 7 6 6 6 6 6 6 6 6 7 7 7 7
3 3 3 3 3 3 3 2 3 3 2 2 2 2 3 3 3 3 3 4 5 5 5 6 6 6 7 7 7 7 6 5 5 5 5 5 6 6 6 6 7 8 8 7 7 8 8 7 7 7 7 7 7 7 7 7 7 7 7 7 6 6 6 6 6 7 7 7 8
3 3 3 3 3 3 3 3 3 3 2 2 2 3 3 3 3 3 3 4 4 5 5 4 4 4 5 5 5 6 6 6 5 5 5 5 5 6 6 6 7 7 7 6 7 8 8 7 7 7 7 7 7 7 7 7 7 7 7 7 7 7 7 7 7 7 7 8 8
4 4 4 3 3 3 3 3 3 3 3 2 3 3 3 3 3 3 3 4 4 4 4 4 3 3 3 4 4 5 6 6 6 6 5 5 6 6 6 6 6 6 6 6 10 12 12 10 8 7 6 6 6 6 6 6 7 7 7 7 7 7 7 7 7 8 9 9 9
4 4 4 4 4 3 3 3 3 3 3 3 3 3 3 3 3 3 3 3 3 3 3 3 3 3 3 3 4 4 5 5 6 6 7 6 6 6 6 5 5 5 5 8 13 15 15 14 12 9 7 6 6 6 6 6 7 7 7 7 7 7 7 7 8 9 9 10 10
4 4 4 4 4 3 3 3 3 3 3 3 3 3 3 3 3 3 3 3 3 2 2 3 3 4 4 4 4 4 4 4 4 5 6 7 7 7 6 5 5 5 6 10 14 16 16 16 15 13 10 6 6 6 6 6 6 6 6 6 6 7 7 8 9 9 9 9 9
4 4 4 4 3 3 2 2 2 3 3 3 3 3 3 3 3 3 3 3 3 3 2 2 2 3 3 3 4 4 4 3 4 4 5 6 7 7 6 5 5 5 8 12 15 16 16 16 16 15 13 8 6 5 5 5 5 5 5 5 6 7 7 8 8 9 9 9 9
4 4 4 4 3 2 2 2 2 3 3 3 3 3 3 3 3 3 3 3 3 3 2 2 2 2 2 3 3 3 3 3 3 3 4 5 5 5 5 5 5 6 9 13 15 15 15 15 15 15 14 12 7 4 4 4 4 4 4 5 5 6 7 8 8 8 8 8 8
4 4 4 4 3 2 2 2 2 2 3 3 3 4 4 4 3 3 3 3 3 2 2 2 2 3 3 3 3 3 3 2 3 3 4 5 5 5 4 4 4 6 9 13 14 14 15 15 15 15 15 14 8 5 4 4 4 4 5 5 6 7 8 9 9 9 9 8 8
4 4 4 4 3 2 2 1 2 2 3 4 4 4 4 4 3 3 3 3 3 2 2 3 3 3 3 3 3 3 3 2 3 3 4 5 5 5 4 3 3 5 8 12 13 14 14 14 14 14 14 14 10 7 5 5 6 6 6 6 8 9 9 9 9 9 9 9 8
4 4 4 4 3 2 1 2 2 3 4 4 4 4 4 3 2 2 2 2 3 3 3 3 3 3 3 3 3 3 3 3 3 3 3 4 4 4 3 3 3 5 7 12 13 13 13 14 14 14 14 15 11 8 7 7 7 7 7 8 9 10 10 9 9 9 10 9 9
4 4 4 3 2 2 2 2 3 3 4 4 4 4 3 3 2 2 2 2 3 3 3 3 4 4 4 3 3 3 3 3 3 3 3 3 3 3 3 3 3 5 7 11 12 12 13 13 14 14 14 15 11 9 7 7 7 7 7 9 10 10 11 11 10 10 10 9 8
4 4 3 3 2 2 2 2 3 4 4 4 4 3 3 3 2 2 2 2 2 2 3 3 3 4 3 3 3 3 3 3 3 3 3 3 3 3 3 3 3 5 8 11 11 12 13 13 14 14 15 15 11 8 7 7 7 7 8 9 9 9 10 10 10 10 9 9 8
3 3 3 2 2 2 3 3 3 4 4 4 3 3 2 2 2 2 2 2 2 2 2 2 2 2 3 2 3 3 3 3 3 2 3 3 3 3 3 3 3 5 8 11 12 12 13 14 14 15 14 13 9 7 6 7 7 8 8 9 9 9 9 9 9 8 8 8 7
3 4 3 3 3 3 3 3 4 4 4 4 3 2 2 2 2 2 2 3 3 3 3 2 2 2 2 2 2 2 3 3 3 3 3 3 3 3 3 4 4 6 8 11 12 13 14 14 14 15 14 11 7 5 5 6 6 7 7 8 8 8 8 7 7 7 6 6 6
3 3 4 3 3 3 3 4 4 4 4 3 3 2 2 2 1 1 2 3 3 3 3 2 3 3 2 2 2 2 2 3 3 3 3 4 4 4 4 4 5 6 8 11 13 13 14 14 15 14 12 8 5 5 5 5 5 5 6 7 7 7 6 6 6 5 5 5 6
2 3 4 4 3 3 3 4 4 4 4 3 2 2 2 2 1 1 2 2 3 3 3 2 2 2 2 3 3 2 2 3 3 4 4 4 5 5 5 5 6 6 8 11 12 13 14 14 15 14 12 7 5 5 5 4 4 5 5 6 5 5 5 4 4 4 4 5 6
2 3 4 4 4 4 4 4 4 3 3 3 2 2 2 2 1 1 1 2 3 3 3 3 2 2 2 3 3 3 2 2 3 4 5 5 6 6 6 6 6 7 8 10 11 13 14 14 14 14 12 8 5 4 4 4 4 5 5 5 5 5 4 3 3 3 3 4 7
2 3 4 4 4 4 5 4 3 3 3 3 3 2 2 2 2 2 2 2 3 3 3 3 3 3 3 4 4 3 3 2 3 3 4 5 6 7 7 6 6 6 7 9 10 12 13 13 14 14 13 8 5 4 4 4 4 5 5 5 5 4 4 3 3 2 3 4 5
3 4 4 4 4 5 5 5 4 3 3 3 3 2 2 2 2 2 2 3 3 3 3 3 3 3 3 3 3 3 3 2 2 3 3 4 5 6 6 6 6 6 6 7 9 10 12 12 13 14 13 9 5 4 3 3 3 4 5 5 5 4 4 4 3 3 3 3 4
Wind_Direction
183 183 180 176 175 177 180 182 179 177 176 177 177 175 173 173 178 180 182 182 184 184 184 184 185 182 179 177 179 179 178 175 176 177 178 177 176 174 172 171 170 168 167 166 165 166 166 166 164 164 167 169 170 172 173 169 160 158 159 160 161 159 158 161 167 169 171 173 168
183 181 178 173 171 172 173 176 176 176 176 178 175 172 170 173 177 180 182 185 185 183 181 182 182 181 180 181 182 181 178 176 177 177 177 176 175 173 171 171 170 169 167 165 166 167 169 168 166 167 169 169 168 173 178 176 164 159 160 164 164 161 161 165 171 172 170 170 165
182 180 177 173 171 170 172 175 176 175 175 176 171 169 169 174 177 179 181 184 181 178 176 178 181 181 181 182 184 183 181 178 178 177 177 176 175 173 171 171 170 170 169 168 169 170 171 170 170 170 172 173 173 177 181 181 169 164 164 168 165 162 163 171 173 170 165 164 160
180 179 179 178 174 174 175 177 175 175 174 173 168 167 170 175 175 176 176 175 173 175 177 178 180 181 181 182 184 185 184 181 178 177 177 175 175 174 172 170 170 171 172 170 170 170 171 171 172 173 174 173 175 178 181 178 172 168 166 167 161 161 165 171 170 165 161 160 161
182 183 183 183 179 177 177 176 174 174 174 171 168 170 173 174 172 169 168 171 178 181 180 177 177 179 181 182 183 184 184 183 181 180 178 176 176 176 174 171 173 174 174 173 172 171 170 169 172 174 175 175 178 180 178 169 167 166 164 162 159 161 164 167 166 161 157 156 159
184 186 186 185 180 178 177 175 173 173 173 170 170 172 174 174 171 171 173 178 181 179 176 174 176 177 178 180 182 182 183 185 185 182 179 178 178 177 176 176 176 176 175 175 173 171 170 170 172 175 176 176 179 177 171 162 163 163 164 167 168 165 162 166 165 161 156 155 159
182 185 186 186 181 179 177 174 173 172 171 171 174 176 176 175 173 175 177 178 176 174 174 176 177 177 178 180 182 184 185 187 187 184 182 181 180 180 180 180 179 178 177 176 174 173 172 172 173 176 179 179 179 176 170 163 163 165 167 176 177 168 161 166 163 159 158 161 166
182 184 186 185 182 178 175 173 171 171 172 177 181 180 178 175 174 175 175 175 175 176 178 179 180 179 179 180 183 184 186 186 187 187 185 183 183 183 184 182 181 180 179 178 176 175 175 175 175 177 178 178 179 178 173 167 166 169 174 181 181 175 167 165 161 160 162 166 172
185 187 186 182 180 176 173 172 171 172 176 182 184 182 178 175 174 174 175 178 179 179 179 181 181 180 180 182 184 185 186 187 188 188 187 186 185 186 186 185 184 184 183 180 179 177 176 176 177 178 177 177 179 178 174 168 170 174 178 180 179 178 174 163 162 163 165 168 176
187 186 182 179 176 172 169 170 171 174 177 181 183 181 179 177 177 177 179 180 178 179 181 183 181 181 182 184 186 187 188 188 188 188 188 188 188 188 188 187 187 186 185 184 181 178 175 174 175 176 175 175 176 174 172 171 173 176 179 181 177 176 177 174 168 168 171 175 183
183 180 176 174 170 167 165 167 171 175 178 180 181 180 179 179 180 181 180 176 175 180 184 183 180 180 183 186 187 188 189 189 189 189 190 191 190 190 189 189 188 187 186 184 181 177 175 174 172 172 173 177 175 174 173 174 174 176 177 177 173 173 177 182 179 178 179 182 188
174 172 169 166 164 162 164 167 173 177 179 180 180 180 181 182 181 180 177 172 177 182 185 181 180 181 183 186 187 187 188 189 189 189 190 192 191 191 190 190 189 188 186 182 179 177 175 175 172 173 176 179 180 179 177 176 175 175 174 175 173 175 179 184 185 184 182 182 189
162 162 161 160 159 161 164 169 173 177 179 180 181 181 182 182 180 177 175 175 180 182 182 179 180 182 183 185 185 185 186 188 188 188 190 191 190 189 189 189 187 185 182 179 177 176 175 175 175 177 180 183 186 185 182 178 176 175 175 175 177 180 184 186 184 182 179 181 192
150 153 155 155 157 160 164 168 172 176 178 180 181 181 180 178 177 175 175 177 180 178 176 176 180 183 184 183 182 183 183 184 185 186 187 188 187 186 185 184 181 179 177 176 176 177 178 180 181 182 183 185 188 187 184 181 180 178 178 178 182 185 188 187 183 179 178 186 197
139 144 147 150 154 158 162 166 169 172 175 177 178 176 174 173 174 173 173 174 174 170 168 170 177 181 181 178 178 179 179 180 182 183 184 184 184 183 182 179 176 175 175 176 179 182 183 184 184 184 185 185 187 186 185 185 183 183 182 183 185 187 189 189 184 182 184 192 202
131 135 138 143 148 152 156 162 163 165 167 172 170 168 167 167 168 166 165 166 164 162 163 169 173 174 174 173 174 175 176 178 180 182 183 184 183 183 182 179 178 178 178 178 182 185 187 185 183 183 183 184 184 185 186 187 186 185 186 187 187 188 189 189 188 189 193 198 206
127 130 134 139 144 148 151 155 155 159 163 167 164 163 163 162 162 163 163 163 161 162 166 171 171 171 171 173 174 175 176 180 182 185 186 187 186 186 185 183 183 182 181 180 182 184 184 182 180 179 179 180 181 183 185 186 186 187 188 188 188 189 190 191 191 194 198 203 212
131 134 138 142 147 151 154 156 156 160 165 167 166 165 164 162 163 164 165 164 163 165 168 173 173 173 173 175 177 179 181 184 187 189 190 190 189 188 187 186 184 183 181 180 180 179 178 175 173 174 175 176 179 181 183 183 185 187 188 189 191 192 193 194 194 196 200 207 215
141 144 147 152 156 159 160 161 161 164 167 168 167 166 166 164 165 165 166 168 169 170 171 174 175 177 178 178 181 183 186 188 190 192 193 191 190 188 187 184 182 181 180 179 177 175 172 170 170 171 172 175 176 178 179 180 183 185 187 189 192 194 195 196 197 199 203 208 215
150 153 158 162 163 164 164 164 164 165 166 166 164 165 167 168 167 168 170 174 175 174 173 175 177 179 181 182 183 186 189 190 191 191 191 189 187 186 184 179 176 176 176 175 173 171 169 169 169 170 171 173 174 175 177 178 181 184 186 189 192 195 196 197 199 202 205 210 216
154 159 162 163 163 164 165 163 158 154 153 155 160 164 167 169 170 172 174 176 175 175 176 177 179 180 182 183 185 188 190 189 188 188 187 184 183 182 178 171 169 170 171 172 170 169 168 169 169 170 171 172 174 176 178 179 182 185 189 193 195 197 197 198 199 203 207 212 217
154 154 153 153 155 155 153 144 137 134 137 144 150 157 162 167 173 175 174 171 172 174 178 181 181 182 182 183 185 186 185 183 182 182 181 180 179 176 170 163 162 164 167 169 169 168 167 168 168 168 170 172 177 179 181 183 187 192 196 200 202 203 202 202 203 206 210 215 219
139 135 132 132 134 133 129 120 115 117 123 131 137 145 154 164 169 167 165 166 172 178 182 184 183 183 182 182 180 177 175 172 173 174 174 172 170 166 161 156 159 163 167 170 168 166 165 166 167 168 170 174 180 184 187 190 193 197 202 208 211 212 213 213 213 215 218 221 224
127 124 121 116 117 118 116 111 112 117 126 135 141 147 153 159 157 155 157 166 175 180 182 182 179 176 174 172 169 166 165 164 166 167 167 165 161 158 156 156 162 166 169 170 169 168 168 166 168 171 175 178 183 188 192 196 198 201 205 210 215 219 221 223 223 224 225 228 229
125 123 121 121 122 122 120 120 128 137 147 153 151 151 151 153 150 151 156 166 173 174 172 166 159 154 152 152 156 158 160 162 162 163 162 160 157 155 156 159 164 167 169 171 175 176 175 173 173 175 179 184 189 194 198 201 203 205 207 211 214 219 225 230 230 231 231 231 231
123 125 129 133 134 134 137 141 146 150 152 152 150 150 153 152 147 148 152 160 161 157 149 143 141 141 143 143 148 154 159 162 161 161 160 159 156 156 159 164 167 168 172 178 182 183 183 182 182 182 183 187 192 198 203 208 209 209 211 213 215 218 223 229 233 234 234 234 233
123 130 136 138 139 144 149 150 144 143 144 147 151 153 152 144 138 139 142 147 140 130 124 126 135 141 143 139 148 155 161 163 160 160 159 158 158 161 164 167 168 171 179 186 188 189 189 190 190 190 189 189 195 199 204 209 212 213 215 218 220 222 226 231 234 237 239 240 238
128 134 136 134 140 145 145 130 130 136 144 150 152 149 140 129 128 130 132 131 122 115 114 121 131 134 135 139 151 157 158 155 154 154 154 155 158 162 166 169 172 178 185 191 193 195 196 197 198 197 196 195 198 202 205 209 214 217 221 226 230 232 234 237 240 243 245 247 247
131 132 132 133 139 136 125 116 131 141 146 145 138 128 122 120 124 126 128 125 124 126 131 134 125 121 126 144 150 149 145 144 145 146 148 151 158 163 168 170 174 184 191 195 198 201 202 204 205 205 204 200 198 198 202 208 215 221 227 232 234 236 239 241 244 246 249 251 252
127 127 129 132 131 125 119 123 132 135 132 126 118 116 116 119 126 130 134 136 141 144 143 130 120 124 134 146 141 137 136 139 139 142 147 154 162 168 173 173 177 189 196 199 203 206 209 211 212 213 211 207 201 195 195 202 211 219 226 232 234 235 237 239 242 245 248 250 252
119 122 124 125 124 122 119 113 113 114 115 114 115 117 121 126 135 142 147 147 142 129 114 103 114 124 132 133 131 133 138 137 139 146 154 161 168 172 175 177 182 194 201 204 207 211 214 216 218 219 218 215 208 200 195 200 207 215 223 229 232 232 234 236 238 240 242 245 248
109 116 119 122 125 121 108 95 100 106 111 115 119 122 126 132 136 137 133 124 115 108 104 103 116 123 125 122 125 129 134 138 148 156 162 165 168 171 176 183 191 202 207 209 212 215 218 221 222 224 224 223 219 211 202 202 208 215 223 229 231 232 233 235 237 238 239 240 242
96 108 115 122 125 115 95 88 96 104 110 115 120 124 126 124 105 89 84 91 104 112 118 127 133 136 138 138 138 140 144 150 158 161 163 161 161 165 176 194 204 210 212 213 216 220 222 225 226 227 228 228 229 222 212 209 213 219 225 229 232 233 234 235 239 241 241 242 243
86 98 107 115 114 101 88 84 93 100 107 112 115 117 117 112 101 95 93 97 105 112 120 129 135 140 143 144 145 149 153 159 156 153 151 148 150 162 181 207 219 217 216 217 222 225 227 229 230 232 233 234 235 232 224 221 224 227 230 232 233 234 234 236 239 242 245 246 248
86 92 97 99 95 89 85 85 91 97 104 109 111 110 108 110 115 121 125 123 106 98 97 103 111 115 119 123 133 144 152 157 156 152 150 147 153 170 193 217 229 225 222 222 226 229 232 234 236 237 239 240 240 237 233 232 235 236 236 237 238 238 238 238 240 242 244 246 248
89 94 96 92 85 82 85 88 92 96 102 109 114 115 113 110 113 121 124 114 102 95 92 92 95 100 107 115 125 142 153 159 159 161 161 160 164 179 201 222 233 232 229 228 231 234 236 239 242 244 246 247 245 241 238 239 242 243 243 244 246 245 243 242 241 241 242 242 243
87 95 96 92 85 83 85 90 94 97 103 110 117 124 125 118 103 99 103 104 101 102 104 103 109 120 132 143 148 154 159 161 160 165 172 176 179 189 206 225 234 235 234 233 236 239 242 245 249 252 254 254 251 248 246 246 249 250 250 251 252 251 249 246 243 242 241 240 241
79 90 93 92 89 86 87 90 96 103 109 115 118 123 125 116 102 93 96 104 111 116 120 118 126 140 150 150 147 147 151 159 163 170 178 188 192 198 207 223 233 238 238 238 241 244 248 252 256 259 261 262 257 253 253 254 256 256 256 256 257 256 253 249 245 243 242 242 248
73 86 91 93 93 91 90 90 97 107 115 117 112 104 95 88 87 86 92 101 114 122 126 129 139 148 150 142 135 136 146 166 173 179 184 195 201 204 209 220 233 240 243 243 245 249 253 258 263 266 269 269 264 260 260 262 264 265 265 264 266 265 263 256 249 246 245 246 254
70 80 85 89 93 94 93 91 95 103 111 111 105 96 88 81 84 83 81 84 99 110 119 127 135 141 141 137 135 140 155 181 193 194 196 202 208 212 216 223 235 245 249 250 252 255 260 264 269 273 276 276 272 268 267 269 272 274 274 273 273 273 273 267 258 250 249 251 256
61 70 75 81 88 92 94 92 89 85 86 90 95 99 102 99 89 78 73 74 82 94 106 116 122 126 129 132 134 143 160 193 216 219 216 214 219 223 226 232 243 252 259 262 264 267 270 274 278 282 285 285 280 274 271 273 276 278 278 276 273 273 274 276 271 262 255 254 256